Weather History for Hereford, TX

Change the Weather History Date:

Monday, August 19, 2013

  Actual Average (KAMA) Record (KAMA)
Temperature  
Mean Temperature 79 °F 77 °F  
Max Temperature 96 °F 89 °F 102 °F (1938)
Min Temperature 62 °F 64 °F 53 °F (1956)
Degree Days  
Heating Degree Days 0 0  
Month to date heating degree days 0  
Since 1 June heating degree days 7  
Since 1 July heating degree days 0  
Cooling Degree Days 14 12  
Month to date cooling degree days 237  
Year to date cooling degree days 1062  
Since 1 June cooling degree days 937  
Growing Degree Days 29 (Base 50)    
Moisture  
Dew Point 56 °F    
Average Humidity 49    
Maximum Humidity 83    
Minimum Humidity 23    
Precipitation  
Precipitation 0.00 in 0.09 in 1.70 in (1958)
Month to date precipitation 1.93  
Year to date precipitation 14.29  
Snow  
Snow 0.00 in 0.00 in 0.00 in ()
Month to date snowfall 0.0  
Since 1 June snowfall 0.0  
Since 1 July snowfall 0.0  
Snow Depth -    
Sea Level Pressure  
Sea Level Pressure 30.08 in    
Wind  
Wind Speed 8 mph (South)    
Max Wind Speed 16 mph    
Max Gust Speed 25 mph    
Visibility 10 miles    
Events      
T = Trace of Precipitation, MM = Missing Value Source: NWS Daily Summary

Daily Weather History Graph

Daily Weather History Graph

Search for Another Location

Airport:

Trip Planner

Search our weather history database for the weather conditions in past years. The results will help you decide how hot, cold, wet, or windy it might be!

Date:

Astronomy

Aug. 19, 2013 Rise Set
Actual Time 7:12 AM CDT 8:32 PM CDT
Civil Twilight 6:46 AM CDT 8:58 PM CDT
Nautical Twilight 6:14 AM CDT 9:30 PM CDT
Astronomical Twilight 5:41 AM CDT 10:03 PM CDT
Moon 7:25 PM CDT (8/19) 5:35 AM CDT (8/19)
Length of Visible Light 14h 12m
Length of Day
13h 19m
Waxing Gibbous, 97% of the Moon is Illuminated
Aug 19
Waxing Gibbous
Aug 20
Full
Aug 28
Last Quarter
Sep 5
New
Sep 12
First Quarter

Hourly Weather History & Observations

Time (CDT) Temp. Heat Index Dew Point Humidity Pressure Visibility Wind Dir Wind Speed Gust Speed Precip Events Conditions
12:15 AM 73.2 °F - 58.6 °F 60% 30.13 in 10.0 mi SE 8.1 mph 16.1 mph N/A   Clear
12:35 AM 72.1 °F - 59.0 °F 63% 30.13 in 10.0 mi SE 8.1 mph - N/A   Clear
12:55 AM 71.8 °F - 58.5 °F 63% 30.14 in 10.0 mi SE 6.9 mph - N/A   Clear
1:15 AM 71.1 °F - 58.5 °F 64% 30.14 in 10.0 mi SSE 9.2 mph - N/A   Clear
1:35 AM 71.1 °F - 58.3 °F 64% 30.14 in 10.0 mi SSE 6.9 mph - N/A   Clear
1:55 AM 69.8 °F - 58.3 °F 67% 30.13 in 10.0 mi SSE 6.9 mph - N/A   Clear
2:15 AM 69.8 °F - 58.1 °F 66% 30.14 in 10.0 mi Calm Calm - N/A   Clear
2:35 AM 68.0 °F - 58.1 °F 71% 30.14 in 10.0 mi South 3.5 mph - N/A   Clear
2:55 AM 66.2 °F - 58.1 °F 75% 30.13 in 10.0 mi Calm Calm - N/A   Clear
3:15 AM 66.6 °F - 58.1 °F 74% 30.12 in 10.0 mi South 4.6 mph - N/A   Clear
3:35 AM 66.0 °F - 58.3 °F 76% 30.11 in 10.0 mi SSE 8.1 mph - N/A   Clear
3:55 AM 65.8 °F - 58.5 °F 77% 30.10 in 10.0 mi SSE 5.8 mph - N/A   Clear
4:15 AM 64.4 °F - 58.1 °F 80% 30.11 in 10.0 mi Calm Calm - N/A   Clear
4:35 AM 64.6 °F - 57.9 °F 79% 30.11 in 10.0 mi Calm Calm - N/A   Clear
4:55 AM 63.5 °F - 58.1 °F 83% 30.10 in 10.0 mi Calm Calm - N/A   Clear
5:15 AM 62.6 °F - 57.4 °F 83% 30.10 in 10.0 mi SSW 3.5 mph - N/A   Clear
5:35 AM 63.0 °F - 57.2 °F 81% 30.09 in 10.0 mi SSW 3.5 mph - N/A   Clear
5:55 AM 63.3 °F - 57.0 °F 80% 30.09 in 10.0 mi SW 3.5 mph - N/A   Clear
6:15 AM 63.1 °F - 56.8 °F 80% 30.09 in 10.0 mi SSW 4.6 mph - N/A   Clear
6:35 AM 63.5 °F - 56.8 °F 79% 30.09 in 10.0 mi SW 3.5 mph - N/A   Clear
6:55 AM 63.5 °F - 57.0 °F 79% 30.09 in 10.0 mi SSW 5.8 mph - N/A   Clear
7:15 AM 62.6 °F - 56.7 °F 81% 30.09 in 10.0 mi SW 4.6 mph - N/A   Clear
7:35 AM 63.5 °F - 57.0 °F 79% 30.09 in 10.0 mi SSW 5.8 mph - N/A   Clear
7:55 AM 62.1 °F - 56.7 °F 82% 30.09 in 10.0 mi South 4.6 mph - N/A   Clear
8:15 AM 64.4 °F - 57.2 °F 77% 30.10 in 10.0 mi SSW 4.6 mph - N/A   Clear
8:35 AM 67.5 °F - 57.6 °F 70% 30.10 in 10.0 mi SSW 8.1 mph - N/A   Clear
8:55 AM 70.9 °F - 57.2 °F 62% 30.10 in 10.0 mi SSW 11.5 mph - N/A   Clear
9:15 AM 73.6 °F - 57.2 °F 56% 30.10 in 10.0 mi SSW 10.4 mph - N/A   Clear
9:35 AM 75.7 °F - 56.8 °F 52% 30.10 in 10.0 mi SSW 12.7 mph - N/A   Clear
9:55 AM 78.1 °F - 56.1 °F 47% 30.10 in 10.0 mi SW 11.5 mph 17.3 mph N/A   Clear
10:15 AM 80.4 °F 80.5 °F 55.8 °F 43% 30.11 in 10.0 mi SSW 9.2 mph - N/A   Clear
10:35 AM 83.1 °F 82.2 °F 55.4 °F 38% 30.10 in 10.0 mi SSW 9.2 mph - N/A   Clear
10:55 AM 83.7 °F 82.5 °F 55.0 °F 37% 30.10 in 10.0 mi SSW 9.2 mph - N/A   Clear
11:15 AM 84.7 °F 83.3 °F 54.3 °F 35% 30.11 in 10.0 mi SSW 10.4 mph - N/A   Clear
11:35 AM 87.1 °F 85.3 °F 54.5 °F 33% 30.10 in 10.0 mi South 8.1 mph - N/A   Clear
11:55 AM 87.8 °F 85.7 °F 53.4 °F 31% 30.10 in 10.0 mi SSW 10.4 mph - N/A   Clear
12:15 PM 89.4 °F 87.3 °F 53.8 °F 30% 30.10 in 10.0 mi South 8.1 mph - N/A   Clear
12:35 PM 90.3 °F 88.3 °F 54.7 °F 30% 30.10 in 10.0 mi South 9.2 mph 19.6 mph N/A   Clear
12:55 PM 91.4 °F 89.1 °F 54.3 °F 28% 30.10 in 10.0 mi SSW 10.4 mph - N/A   Clear
1:15 PM 91.6 °F 89.3 °F 54.0 °F 28% 30.10 in 10.0 mi SSW 9.2 mph - N/A   Clear
1:35 PM 92.1 °F 90.0 °F 54.1 °F 28% 30.09 in 10.0 mi SSW 11.5 mph 17.3 mph N/A   Clear
1:55 PM 92.7 °F 90.4 °F 53.8 °F 27% 30.09 in 10.0 mi SSW 8.1 mph - N/A   Clear
2:15 PM 94.5 °F 92.3 °F 54.5 °F 26% 30.08 in 10.0 mi South 8.1 mph 16.1 mph N/A   Clear
2:35 PM 94.1 °F 91.9 °F 54.0 °F 26% 30.08 in 10.0 mi SSW 10.4 mph 19.6 mph N/A   Clear
2:55 PM 95.2 °F 92.7 °F 53.1 °F 24% 30.07 in 10.0 mi South 8.1 mph 20.7 mph N/A   Clear
3:15 PM 95.5 °F 93.1 °F 53.1 °F 24% 30.06 in 10.0 mi SSE 13.8 mph - N/A   Clear
3:35 PM 96.1 °F - 52.9 °F 23% 30.05 in 10.0 mi South 12.7 mph 18.4 mph N/A   Clear
3:55 PM 95.9 °F - 52.5 °F 23% 30.05 in 10.0 mi SSE 15.0 mph - N/A   Clear
4:15 PM 96.4 °F 94.0 °F 53.4 °F 23% 30.04 in 10.0 mi South 15.0 mph 25.3 mph N/A   Clear
4:35 PM 96.1 °F 93.8 °F 53.2 °F 24% 30.04 in 10.0 mi South 13.8 mph 20.7 mph N/A   Clear
4:55 PM 96.1 °F - 52.3 °F 23% 30.03 in 10.0 mi SSE 16.1 mph 19.6 mph N/A   Clear
5:15 PM 95.4 °F - 52.3 °F 23% 30.03 in 10.0 mi SSE 12.7 mph 19.6 mph N/A   Clear
5:35 PM 95.5 °F 93.1 °F 53.2 °F 24% 30.02 in 10.0 mi South 12.7 mph 16.1 mph N/A   Clear
5:55 PM 95.2 °F - 52.7 °F 24% 30.02 in 10.0 mi South 12.7 mph 19.6 mph N/A   Clear
6:15 PM 92.7 °F 90.1 °F 53.1 °F 26% 30.02 in 10.0 mi SSE 15.0 mph 18.4 mph N/A   Clear
6:35 PM 90.7 °F - 52.0 °F 27% 30.02 in 10.0 mi SSE 9.2 mph - N/A   Clear
6:55 PM 90.1 °F 87.9 °F 53.4 °F 29% 30.02 in 10.0 mi SSE 8.1 mph - N/A   Clear
7:15 PM 89.4 °F 87.3 °F 53.8 °F 30% 30.01 in 10.0 mi SSE 10.4 mph - N/A   Clear
7:35 PM 88.7 °F 86.7 °F 54.3 °F 31% 30.02 in 10.0 mi SSE 11.5 mph - N/A   Clear
7:55 PM 87.8 °F 85.9 °F 54.7 °F 32% 30.03 in 10.0 mi SE 12.7 mph 18.4 mph N/A   Clear
8:15 PM 86.2 °F 85.2 °F 58.1 °F 38% 30.04 in 10.0 mi SE 13.8 mph - N/A   Clear
8:35 PM 84.7 °F 84.2 °F 58.5 °F 41% 30.04 in 10.0 mi SE 11.5 mph 19.6 mph N/A   Clear
8:55 PM 83.3 °F 82.9 °F 58.1 °F 42% 30.04 in 10.0 mi SE 10.4 mph - N/A   Clear
9:15 PM 81.9 °F 81.8 °F 58.1 °F 44% 30.05 in 10.0 mi SE 9.2 mph - N/A   Clear
9:35 PM 80.6 °F 80.8 °F 57.2 °F 45% 30.05 in 10.0 mi SE 9.2 mph - N/A   Clear
9:55 PM 79.9 °F - 57.4 °F 46% 30.06 in 10.0 mi SE 9.2 mph - N/A   Clear
10:15 PM 79.2 °F - 58.1 °F 48% 30.07 in 10.0 mi SE 9.2 mph - N/A   Clear
10:35 PM 79.0 °F - 58.3 °F 49% 30.07 in 10.0 mi SE 12.7 mph - N/A   Clear
10:55 PM 79.7 °F - 58.3 °F 48% 30.08 in 10.0 mi SE 16.1 mph 21.9 mph N/A   Clear
11:15 PM 79.3 °F - 58.3 °F 48% 30.08 in 10.0 mi SSE 13.8 mph 20.7 mph N/A   Clear
11:35 PM 78.3 °F - 58.6 °F 51% 30.09 in 10.0 mi SE 10.4 mph 18.4 mph N/A   Clear
11:55 PM 77.0 °F - 59.0 °F 54% 30.09 in 10.0 mi SE 9.2 mph 16.1 mph N/A   Clear